Weather in Putyatino

Russia / Ryazan Oblast     54°09′16″N   41°06′55″E
temp.,
°C
wind,
m/s
gust,
m/s
humid.,
%
clouds,
%
prec.,
mm/h
press.,
hPa
HPBL,
m
28 february, sun
sun2800:00−13nnw339662 0.0 101357
03:00−14nnw339644 0.0 101437
06:00−13nw239655 0.1 101551
09:00−11nnw359566 0.1 1015249
12:00−8nw349194 0.0 1015424
15:00−6nnw359097 0.1 1016521
18:00−7nnw2494100 0.1 1017123
21:00−7n2496100 0.1 1019135
1 march, mon
mon100:00−8nne1296100 0.1 102136
03:00−12nne119799 0.1 102321
06:00−13nw129756 0.0 102321
09:00−10w119565 0.1 102553
12:00−4wsw349387 0.0 1024298
15:00−2wsw579289 0.1 1023561
18:00−2wsw599198 0.0 1020537
21:00−2wsw6119499 0.1 1018517
2 march, tue
tue200:00−1wsw71397100 0.6 1015611
03:00+1wsw71393100 0.9 1012624
06:00+1w71498100 0.2 1008692
09:00+1wnw81498100 1.0 1006699
12:00+1nw61296100 0.3 1006818
15:00+1nw6129096 0.4 1007888
18:000wnw5129284 0.2 1007635
21:00−2nw6148892 0.3 1008593
3 march, wed
wed300:00−3nw5129693 0.1 1009517
03:00−3nw6129496 0.5 1010621
06:00−4nw61393100 0.1 1011736
09:00−4nnw81286100 0.2 1013816
12:00−3nw71184100 0.0 1014971
15:00−2nnw71186100 0.2 10151214
18:00−5nw4108688 0.1 1016211
21:00−7wnw379476 0.1 1018127
4 march, thu
thu400:00−6wnw3894100 0.1 1018178
03:00−6w479291 0.1 1017131
06:00−7sw59930 0.0 1016195
09:00−4wsw6139248 0.0 1014383
12:000wsw8138793 0.0 1012659
15:000wsw8148696 0.0 1010724
18:00−1sw8168644 0.0 1007634
21:00−1wsw7178522 0.0 1006595